This is the latest recevied weather packets stored in our database for station/object OK1VOF-13. If no packets are shown the sender has not sent any weather packets the latest 10 day(s).
| Time | Temp. | Humidity | Pressure | Rain* | Wind** | Luminosity | Snow |
|---|---|---|---|---|---|---|---|
| 1788108565 | 31.67° C | 47% | 1016.7 hPa | 0 mm | - | - | - |
| 1788107968 | 31.67° C | 47% | 1016.6 hPa | 0 mm | - | - | - |
| 1788107065 | 32.22° C | 48% | 1016.5 hPa | 0 mm | - | - | - |
| 1788106773 | 32.22° C | 48% | 1016.5 hPa | 0 mm | - | - | - |
| 1788106474 | 32.78° C | 48% | 1016.6 hPa | 0 mm | - | - | - |
| 1788105876 | 32.78° C | 48% | 1016.7 hPa | 0 mm | - | - | - |
| 1788104382 | 32.22° C | 49% | 1016.8 hPa | 0 mm | - | - | - |
| 1788104084 | 32.22° C | 49% | 1016.9 hPa | 0 mm | - | - | - |
| 1788102888 | 31.11° C | 51% | 1016.7 hPa | 0 mm | - | - | - |
| 1788102298 | 30.56° C | 51% | 1016.8 hPa | 0 mm | - | - | - |
| 1788101989 | 30° C | 51% | 1016.9 hPa | 1.27 mm | - | - | - |
| 1788101083 | 30° C | 51% | 1016.8 hPa | 33.02 mm | - | - | - |
| 1788100479 | 29.44° C | 52% | 1016.8 hPa | 33.02 mm | - | - | - |
| 1788098969 | 28.89° C | 52% | 1017 hPa | 33.02 mm | - | - | - |
| 1788098360 | 28.33° C | 52% | 1017 hPa | 31.75 mm | - | - | - |
| 1788097749 | 27.78° C | 53% | 1017.1 hPa | 0 mm | - | - | - |
| 1788097450 | 27.78° C | 53% | 1017.1 hPa | 0 mm | - | - | - |
| 1788096846 | 27.78° C | 53% | 1017.2 hPa | 0 mm | - | - | - |
| 1788096554 | 27.22° C | 53% | 1017.1 hPa | 0 mm | - | - | - |
| 1788095956 | 27.22° C | 53% | 1017.2 hPa | 0 mm | - | - | - |
| 1788095657 | 27.22° C | 53% | 1017.3 hPa | 0 mm | - | - | - |
| 1788094755 | 27.22° C | 53% | 1017.4 hPa | 0 mm | - | - | - |
| 1788094456 | 27.22° C | 53% | 1017.3 hPa | 0 mm | - | - | - |
| 1788093865 | 26.67° C | 53% | 1017.3 hPa | 0 mm | - | - | - |
| 1788093566 | 26.67° C | 53% | 1017.3 hPa | 0 mm | - | - | - |
* Rain latest hour (hover to see other rain measurements)
** Current wind speed in m/s (hover to see current wind gust speed)